Погода в Морозове

Россия / Ивановская область     56°43′41″N   40°30′52″E
темп.,
°C
ветер,
м/с
пор.,
м/с
влажн.,
%
обл.,
%
осадки,
мм/ч
давл.,
гПа
погр.,
м
16 апреля, пт
пт1600:00+7всв6148957 0.0 1021494
03:00+6всв51387100 0.0 1022536
06:00+5всв51385100 0.0 1023476
09:00+8всв6107465 0.0 1023573
12:00+13всв696049 0.0 1024888
15:00+13в696166 0.0 10241118
18:00+11всв6107187 0.0 10241028
21:00+9всв5137360 0.0 1025653
17 апреля, сб
сб1700:00+7всв51371100 0.0 1026548
03:00+5всв5127894 0.0 1026422
06:00+4всв4137851 0.0 1027428
09:00+8всв595858 0.0 1027573
12:00+12всв69455 0.0 1026955
15:00+13всв68354 0.0 10251185
18:00+11всв510425 0.0 10251018
21:00+8всв513570 0.0 1025619
18 апреля, вс
вс1800:00+6всв514680 0.0 1026510
03:00+4всв413732 0.0 1026415
06:00+4всв514765 0.0 1025456
09:00+8в6105654 0.0 1025882
12:00+12в6841100 0.0 10251556
15:00+13в6839100 0.0 10241921
18:00+11всв5947100 0.0 10241333
21:00+9всв31062100 0.0 1025542
19 апреля, пн
пн1900:00+7всв4973100 0.0 1026763
03:00+6всв41081100 0.1 1027877
06:00+5всв51080100 0.0 1027830
09:00+5всв51074100 0.1 1028808
12:00+9в6858100 0.1 10271290
15:00+10в5855100 0.1 10271471
18:00+9в4953100 0.0 10271467
21:00+6в41054100 0.0 1028499
20 апреля, вт
вт2000:00+4в4115899 0.0 1027583
03:00+3в41162100 0.0 1026546
06:00+2в41166100 0.0 1026580
09:00+3в51281100 0.0 1024651
12:00+4в51376100 0.1 1023835
15:00+5в71473100 0.1 1020971
18:00+5вюв71676100 0.2 10171002
21:00+4в92087100 2.9 1014753